TimeMST,TemperatureF,Dew PointF,Humidity,Sea Level PressureIn,VisibilityMPH,Wind Direction,Wind SpeedMPH,Gust SpeedMPH,PrecipitationIn,Events,Conditions,WindDirDegrees,DateUTC
12:54 AM,28.9,19.9,69,29.76,10.0,NE,9.2,-,N/A,,Clear,50,2013-02-09 07:54:00
1:54 AM,28.9,19.9,69,29.72,10.0,East,10.4,-,N/A,,Clear,80,2013-02-09 08:54:00
2:54 AM,28.9,19.9,69,29.67,10.0,ENE,9.2,-,N/A,,Clear,60,2013-02-09 09:54:00
3:54 AM,26.1,19.0,75,29.66,10.0,ENE,10.4,-,N/A,,Clear,70,2013-02-09 10:54:00
4:54 AM,28.0,19.9,72,29.66,10.0,NE,4.6,-,N/A,,Clear,40,2013-02-09 11:54:00
5:54 AM,23.0,17.1,78,29.70,10.0,NNE,9.2,-,N/A,,Clear,20,2013-02-09 12:54:00
6:54 AM,23.0,17.1,78,29.69,10.0,NNE,8.1,-,N/A,,Partly Cloudy,20,2013-02-09 13:54:00
7:54 AM,28.9,21.0,72,29.65,10.0,North,3.5,-,N/A,,Partly Cloudy,10,2013-02-09 14:54:00
8:54 AM,35.1,21.9,59,29.63,10.0,NW,3.5,-,N/A,,Partly Cloudy,310,2013-02-09 15:54:00
9:54 AM,37.9,21.9,53,29.59,10.0,Variable,4.6,-,N/A,,Partly Cloudy,0,2013-02-09 16:54:00
10:54 AM,42.1,21.0,43,29.55,10.0,SE,9.2,-,N/A,,Partly Cloudy,130,2013-02-09 17:54:00
11:54 AM,44.1,19.0,37,29.49,10.0,SE,10.4,-,N/A,,Partly Cloudy,140,2013-02-09 18:54:00
12:54 PM,46.0,10.9,24,29.45,10.0,South,18.4,27.6,N/A,,Partly Cloudy,170,2013-02-09 19:54:00
1:54 PM,45.0,7.0,21,29.44,10.0,South,20.7,-,N/A,,Scattered Clouds,190,2013-02-09 20:54:00
2:37 PM,41.0,19.4,42,29.44,9.0,NNW,23.0,34.5,N/A,,Scattered Clouds,340,2013-02-09 21:37:00
2:54 PM,36.0,19.0,50,29.49,10.0,North,23.0,35.7,N/A,,Scattered Clouds,360,2013-02-09 21:54:00
3:54 PM,35.1,19.9,54,29.51,10.0,North,26.5,34.5,N/A,,Scattered Clouds,360,2013-02-09 22:54:00
4:54 PM,32.0,19.9,61,29.54,10.0,NNW,23.0,28.8,N/A,,Mostly Cloudy,340,2013-02-09 23:54:00
5:54 PM,30.9,21.0,67,29.58,8.0,NW,17.3,24.2,0.00,Snow,Light Snow,320,2013-02-10 00:54:00
6:06 PM,30.2,21.2,69,29.47,2.5,NNW,16.1,-,0.00,Snow,Light Snow,340,2013-02-10 01:06:00
6:21 PM,30.2,23.0,75,29.48,1.8,NNW,16.1,-,0.00,Snow,Light Snow,340,2013-02-10 01:21:00
6:35 PM,30.2,23.0,75,29.48,3.0,North,10.4,-,0.00,Snow,Light Snow,360,2013-02-10 01:35:00
6:43 PM,30.2,21.2,69,29.48,1.5,North,11.5,-,0.00,Snow,Light Snow,350,2013-02-10 01:43:00
6:54 PM,30.0,24.1,79,29.58,1.5,NNE,13.8,-,0.01,Snow,Light Snow,20,2013-02-10 01:54:00
7:06 PM,30.2,23.0,75,29.47,4.0,NNE,12.7,-,0.00,Snow,Light Snow,30,2013-02-10 02:06:00
7:43 PM,30.2,21.2,69,29.47,8.0,North,18.4,-,0.00,Snow,Light Snow,360,2013-02-10 02:43:00
7:54 PM,30.0,21.9,72,29.55,8.0,North,15.0,-,0.00,,Overcast,10,2013-02-10 02:54:00
8:54 PM,30.0,21.9,72,29.53,7.0,North,12.7,23.0,0.00,Snow,Light Snow,350,2013-02-10 03:54:00
9:54 PM,28.9,19.9,69,29.53,8.0,North,21.9,27.6,0.00,Snow,Light Snow,350,2013-02-10 04:54:00
10:31 PM,26.6,17.6,69,29.50,9.0,North,17.3,-,0.00,Snow,Light Snow,350,2013-02-10 05:31:00
10:54 PM,26.1,17.1,69,29.54,10.0,North,19.6,-,0.00,,Mostly Cloudy,360,2013-02-10 05:54:00
11:54 PM,26.1,18.0,71,29.54,9.0,North,21.9,31.1,N/A,,Mostly Cloudy,350,2013-02-10 06:54:00